Regional Weather Roundup
Issued by NWS Portland, ME

Home | Current Version | Previous Version | Text Only | Print | Product List | Glossary On
Versions: 1 2 3 4 5 6 7 8 9 10 11 12 13 14 15 16 17 18 19 20 21 22 23 24 25 26 27 28 29 30 31 32 33 34 35 36 37 38 39 40 41 42 43 44 45 46 47 48 49 50
000
ASUS41 KGYX 181510
RWRGYX
WEATHER ROUNDUP FOR MAINE AND NEW HAMPSHIRE
NATIONAL WEATHER SERVICE GRAY ME
1000 AM EST FRI JAN 18 2019

MEZ002-005-006-010-012-015-018-020-021-024-026-027-029-181600-
MAINE

CITY           SKY/WX    TMP DP  RH WIND       PRES   REMARKS
PORTLAND       CLOUDY    23  10  57 MISG      30.16F
SANFORD        CLOUDY    21  10  62 CALM      30.15S
BAR HARBOR     MIX PCPN  30  23  75 S16       30.19F WCI  19
WISCASSET      CLOUDY    24  16  71 CALM      30.18F
ROCKLAND       FLURRIES  32  25  75 S14       30.16F
FRYEBURG       CLOUDY    15   4  61 CALM      30.14F
LEWISTONAUBURN CLOUDY    15   6  67 NW5       30.15F
AUGUSTA        CLOUDY    15   8  73 CALM      30.16F
WATERVILLE     CLOUDY    14   5  67 MISG      30.13F
BANGOR         LGT SNOW  22  17  81 SE6       30.17F
GREENVILLE       N/A     11   4  73 SE8       30.01F
MILLINOCKET    CLOUDY    10   4  76 CALM      30.15F HAZE
HOULTON        CLOUDY     3  -3  76 CALM      30.14F
PRESQUE ISLE   FLURRIES   5  -2  72 SE9       30.13F
FRENCHVILLE    CLOUDY     3  -6  66 SE12      30.05F WCI -13
CARIBOU        LGT SNOW   6  -2  69 S9        30.11F
$$

NHZ002-005-008-009-011-012-014-181600-
NEW HAMPSHIRE

CITY           SKY/WX    TMP DP  RH WIND       PRES   REMARKS
PORTSMOUTH     CLOUDY    25  11  55 CALM      30.14S
ROCHESTER      CLOUDY    23  11  60 NW3       30.14S
NASHUA         CLOUDY    23  13  65 CALM      30.15S
MANCHESTER     CLOUDY    25  11  55 CALM      30.13S
CONCORD        CLOUDY    20  12  71 CALM      30.14S
LACONIA        CLOUDY    18   7  62 CALM      30.13S
PLYMOUTH       LGT SNOW  16  10  76 CALM      30.14S
BERLIN         CLOUDY    14   7  73 CALM      30.02F
WHITEFIELD     CLOUDY    15  10  80 CALM      30.03F
JAFFREY        CLOUDY    25  19  78 CALM      30.08R
KEENE          CLOUDY    25  17  72 CALM      30.11S
LEBANON        CLOUDY    22  13  68 CALM      30.09S HAZE
MT WASHINGTON  SNOWSHWR   7   7 100 SW36G46     N/A  VSB 1/16WCI -18
$$

VTZ005-007-008-181600-
VERMONT

CITY           SKY/WX    TMP DP  RH WIND       PRES   REMARKS
ST JOHNSBURY     N/A     18  14  84 MISG      30.05F
MONTPELIER     CLOUDY    20  14  77 S8        30.04F
BURLINGTON     FLURRIES  26  18  71 S12       30.02F WCI  16
$$

MAZ007-012-024-CTZ003-RIZ002-NYZ038-NYZ072-181600-
SOUTHERN NEW ENGLAND AND NY

CITY           SKY/WX    TMP DP  RH WIND       PRES   REMARKS
BOSTON         CLOUDY    35  26  69 SE6       30.15S
WORCESTER      CLOUDY    25  21  85 SE7       30.08S
NANTUCKET      LGT SNOW  33  32  96 E8        30.12S FOG
PROVIDENCE     PTSUNNY   31  24  75 CALM      30.14S
HARTFORD       PTSUNNY   28  14  55 CALM      30.13R
ALBANY         FLURRIES  29  21  72 S10       30.08R WCI  20
NEW YORK CITY  CLOUDY    34  30  85 NE9       30.12R
$$

ANZ081-ANZ082-ANZ150-NHZ014-MEZ023>029-181600-
COASTAL MARINE OBSERVATIONS

STATION/POSITION TIME  TEMP    WIND        PRES    WAVE
                       AIR SEA DIR/SP/G            HT/PER
                 (UTC) (F)     (DEG/KT/KT) (MB)    (FT/S)
MOUNT DESERT ROC 1500   31     130/ 22/ 24 1022.6F
MATINICUS ROCK   1500   33     150/ 27/ 31 1020.6F
ISLE OF SHOALS   1500   34     180/ 10/ 12 1020.5F
JEFFREYS LEDGE   1438      44                N/A     2/ 4
CASHES LEDGE BUO 1450   33 40              1021.4F   3/ 4
$$

.............KEY..............
   WCI - WIND CHILL
   TC  - TEMPERATURE IN CELSIUS
   VSB - VISIBILITY IN MILES
   HX  - HEAT INDEX
   FAIR- INDICATES FEW OR NO CLOUDS BELOW 12,000 FT, WITH NO
         SIGNIFICANT WEATHER AND/OR OBSTRUCTIONS TO VISIBILITY.






USA.gov is the U.S. government's official web portal to all federal, state and local government web resources and services.